Hourly Data Report for October 15, 2014

All times are specified in Local Standard Time (LST). Add 1 hour to adjust for Daylight Saving Time where and when it is observed.

KUGAARUK CLIMATE
NUNAVUT

68°32'15.060" N
89°47'47.020" W
15.80 m
2303094
71407
NBB

Download Data

Hourly Data (October 2014)
Hourly Data Report for October 15, 2014
Temp Definition
°C
Dew Point Temp Definition
°C
Rel Hum Definition
%
Wind Dir Definition
10's deg

Wind Spd Definition
km/h
Visibility Definition
km
Stn Press Definition
kPa
Hmdx Definition


Wind Chill Definition


Weather Definition


TIME
00:00 -3.0 -3.9 93 1 20   100.88   -9 LegendNANA
01:00 -3.1 -4.0 93 1 17   100.90   -9 LegendNANA
02:00 -3.5 -4.6 92 1 22   100.93   -10 LegendNANA
03:00 -3.0 -4.9 87 36 18   100.96   -9 LegendNANA
04:00 -3.1 -4.2 92 36 27   100.98   -10 LegendNANA
05:00 -3.4 -4.4 93 1 19   100.98   -9 LegendNANA
06:00 -3.7 -4.6 93 1 16   101.02   -9 LegendNANA
07:00 -3.9 -4.8 94 2 27   101.01   -11 LegendNANA
08:00 -3.5 -4.4 94 1 20   101.03   -10 LegendNANA
09:00 -3.4 -4.3 93 2 17   101.07   -9 LegendNANA
10:00 -3.5 -4.6 92 2 13   101.09   -8 LegendNANA
11:00 -3.4 -5.2 88 36 18   101.14   -9 LegendNANA
12:00 -4.0 -5.4 90 2 14   101.18   -9 LegendNANA
13:00 -3.5 -4.9 90 26 1   101.19   -4 LegendNANA
14:00 -3.2 -4.5 91 35 17   101.22   -9 LegendNANA
15:00 -3.2 -4.3 92 34 26   101.23   -10 LegendNANA
16:00 -3.3 -4.6 91 35 22   101.26   -10 LegendNANA
17:00 -3.5 -4.7 92 35 20   101.28   -10 LegendNANA
18:00 -3.5 -4.5 92 35 10   101.33   -7 LegendNANA
19:00 -3.3 -4.6 91 35 8   101.33   -7 LegendNANA
20:00 -3.3 -4.8 90 35 20   101.34   -9 LegendNANA
21:00 -3.8 -5.3 89 35 16   101.36   -9 LegendNANA
22:00 -3.5 -4.9 90 35 18   101.38   -9 LegendNANA
23:00 -3.5 -5.3 87 32 18   101.39   -9 LegendNANA

Notes on Data Quality.

Legend

  • E = Estimated
  • M = Missing
  • NA = Not Available
  • ‡ = Partner data that is not subject to review by the National Climate Archives
Date modified: